O3B MPOWER F1

Last updated on Fri Dec 29 2023 00:03:04 GMT+0000 (Coordinated Universal Time)

1 54755U 22174A 23361.80233597 -.00000024 00000+0 00000+0 0 9999 2 54755 0.0568 15.1576 0006032 274.3780 9.3843 5.00118431 20219
UTC large
Height (km)
Speed (km/s)
/
Latitude / Longitude
Inclination (degrees)
Orbital Period (minutes)
Azimuth
Elevation
Range (km)
Doppler Factor

Next 0 passes for location: London (51.5072 / 0.1276)

Sorry there are no passes over London.